Theta_e
304 308 309 310 311 311 311 311 311 312 311 312 312 311 310 308 308 312 314 314 315 314 313 314 314 315 316 315 316 317 318 318 318 320 319 319 320 322 324 324 324 328 334 344 350 349 347 347 346 347 347 346 347 347 346 345 345 345 344 342 342 342 341 340 340 340 338 338 338 339 339 339 340 338 338 338 338 338 338 339 340 341 341 339 339 339
304 308 310 310 311 312 311 312 312 311 312 312 311 310 310 309 309 313 314 314 315 314 313 315 314 314 315 315 316 316 317 318 318 319 319 319 320 321 323 324 326 330 335 345 350 350 347 346 346 346 347 347 347 347 346 345 345 345 344 342 342 341 340 340 339 339 338 337 336 337 338 339 339 338 338 338 338 338 338 339 340 340 340 339 339 340
304 306 309 309 310 312 312 312 312 312 311 312 311 311 310 310 310 312 314 315 315 313 313 315 313 313 315 315 316 317 316 317 318 319 320 320 320 322 323 325 329 331 337 347 350 349 347 346 347 347 346 347 347 346 345 345 346 344 343 341 341 341 340 340 339 339 338 337 336 336 338 338 337 337 338 337 338 338 339 339 340 340 340 339 339 339
305 306 308 310 310 311 312 312 313 312 311 311 312 311 309 311 311 308 312 315 314 313 313 314 313 314 316 315 316 317 317 316 317 319 320 321 320 322 325 327 330 331 338 349 350 347 347 347 348 347 346 346 346 345 344 346 346 344 342 342 342 341 341 340 339 338 338 337 337 336 337 338 337 337 338 338 338 338 339 340 340 340 340 339 339 339
306 306 307 310 311 312 312 312 312 312 312 311 312 311 310 313 312 310 313 314 314 313 314 313 310 311 315 316 315 317 317 316 317 318 319 320 320 322 324 326 330 331 336 348 351 348 347 346 347 346 345 345 345 346 345 346 346 344 343 343 342 341 341 340 339 338 338 337 337 337 336 338 337 338 338 338 338 338 339 340 340 341 340 340 340 340
306 307 308 309 311 311 311 312 312 311 311 311 312 312 312 314 313 313 314 313 310 310 312 312 307 308 313 315 316 317 317 317 317 317 317 319 320 322 323 325 329 330 333 344 351 349 347 346 346 345 345 345 346 346 346 346 345 344 344 342 342 342 341 340 339 338 338 338 337 336 335 337 337 338 339 339 339 338 339 340 341 341 340 340 340 341
305 308 309 309 310 311 311 311 312 312 311 311 312 313 313 315 314 313 313 310 308 308 312 313 308 307 310 313 317 317 316 317 317 318 317 318 319 320 323 324 327 329 331 341 348 348 347 346 345 345 345 345 346 346 347 346 345 344 343 342 342 342 341 340 339 338 338 338 337 336 335 335 336 337 339 339 339 340 340 339 338 338 338 338 339 339
304 307 309 310 310 311 312 312 312 312 311 311 312 313 313 314 313 312 312 310 309 310 312 312 310 307 307 312 317 317 316 317 317 317 317 318 319 319 321 323 326 329 330 336 343 347 347 347 346 345 344 345 345 346 347 346 344 344 343 341 342 341 340 340 339 338 338 337 336 335 335 335 336 338 339 339 340 339 339 338 336 335 337 337 337 337
304 305 308 310 310 311 312 311 312 312 311 312 313 312 312 312 313 313 311 310 310 311 309 309 310 308 306 311 318 318 316 316 317 317 317 318 318 319 320 322 326 328 330 333 337 342 346 348 347 345 345 345 345 346 347 345 344 344 343 342 341 340 340 340 339 338 338 336 336 335 335 336 337 337 339 340 340 338 338 337 335 335 337 337 337 338
304 305 308 310 310 311 311 311 312 312 311 312 313 312 312 312 313 313 312 310 310 310 308 308 309 308 307 309 314 316 314 315 317 317 317 318 318 319 320 322 325 327 328 332 334 337 343 349 348 346 345 345 345 346 346 345 344 344 343 342 342 341 340 340 339 339 339 337 336 336 337 337 337 338 339 339 339 338 336 334 334 335 336 337 337 337
305 305 308 309 310 311 311 312 312 312 312 312 312 312 311 312 312 313 312 309 309 310 309 309 309 309 308 308 311 315 316 317 318 318 318 319 319 320 321 322 323 324 326 331 336 338 344 349 348 346 345 344 345 346 345 344 343 344 344 342 342 341 340 340 340 339 339 337 336 337 337 337 337 338 338 338 337 336 335 333 334 335 335 335 336 336
305 305 308 309 310 311 311 311 312 312 311 311 312 311 310 311 311 310 310 310 310 309 308 309 310 309 308 309 313 318 321 319 318 319 319 320 320 320 321 322 322 323 327 331 334 336 343 347 347 346 344 344 345 346 344 344 343 344 344 342 341 341 341 340 340 340 339 338 337 338 337 336 337 337 336 337 336 335 334 334 335 334 334 334 335 335
305 306 308 309 310 311 311 311 312 312 311 311 311 311 310 310 310 310 310 310 310 309 309 309 310 310 309 312 316 319 320 320 319 319 320 320 320 319 321 322 323 325 329 333 333 334 341 346 346 345 345 344 345 345 344 343 343 344 344 342 340 340 340 340 340 341 340 338 338 338 336 336 337 337 335 337 337 335 334 335 335 334 334 334 334 334
306 307 307 308 309 310 311 311 312 311 311 311 310 310 311 310 312 314 312 311 311 309 309 310 310 310 309 313 318 319 320 321 320 319 321 321 321 321 321 321 324 328 331 334 333 337 345 347 346 346 345 345 345 344 344 343 343 344 343 341 340 339 340 340 341 341 340 339 338 338 337 336 337 338 337 337 337 335 334 335 335 334 334 334 334 334
307 308 307 308 309 310 311 311 312 311 310 311 311 311 310 309 312 314 312 310 311 310 309 311 312 310 308 313 318 319 319 322 321 320 322 323 322 321 320 321 326 328 330 333 334 339 346 348 346 346 345 344 344 343 344 343 342 343 343 341 339 339 340 340 340 341 340 339 338 338 337 336 337 338 338 337 336 335 335 335 335 334 334 334 334 333
307 307 307 308 309 309 311 311 311 312 310 311 312 311 310 311 311 311 311 312 311 311 310 310 311 312 312 317 319 318 319 321 322 320 321 323 323 322 323 324 327 327 328 333 335 339 346 348 347 346 345 344 344 343 343 343 342 343 343 340 339 340 340 340 340 341 340 339 339 338 337 336 337 337 337 335 335 335 335 335 334 334 333 332 332 330
306 307 307 307 309 309 311 312 311 312 312 311 311 310 312 314 313 310 312 314 312 311 312 310 310 312 313 317 319 318 319 320 321 320 321 323 323 323 324 325 326 326 328 334 337 340 345 347 347 346 345 344 344 342 342 342 341 342 342 340 339 340 340 339 339 339 339 338 338 338 337 336 337 337 335 334 335 335 334 334 334 333 333 331 329 329
306 307 307 307 308 309 311 312 311 312 312 311 310 311 312 314 314 312 311 314 312 312 312 310 311 311 310 313 318 318 318 319 320 320 320 322 323 324 325 326 327 326 331 338 339 339 342 346 346 345 344 344 343 342 342 341 340 342 342 340 340 340 339 339 339 339 338 337 338 337 336 336 336 336 335 334 334 334 333 333 333 332 331 330 328 327
307 308 308 308 309 310 310 311 312 312 312 312 312 312 312 311 312 311 311 313 313 313 313 311 311 310 308 312 316 318 318 319 319 319 321 323 323 324 325 325 326 328 334 338 338 339 343 346 346 345 344 343 341 341 341 341 341 342 341 339 340 340 339 339 339 339 337 337 337 337 337 336 336 335 334 333 333 333 333 332 331 331 330 329 327 325
308 309 308 308 309 310 310 311 312 312 312 312 312 312 312 311 311 310 311 312 312 313 313 313 312 310 310 314 318 318 319 319 319 319 321 323 324 325 327 327 328 332 334 335 337 342 345 346 346 345 343 342 340 340 341 341 342 342 341 339 339 339 339 338 338 338 337 337 337 338 337 337 336 334 333 333 333 332 332 331 330 329 328 327 326 324
309 310 308 308 309 310 310 311 312 312 312 311 311 310 310 311 312 312 312 310 310 312 312 313 312 311 313 318 320 320 320 319 319 320 321 323 324 326 329 331 332 331 331 334 340 344 345 345 345 344 342 341 340 340 340 341 342 341 340 340 339 339 339 338 337 337 337 337 338 338 337 336 335 334 333 333 332 332 331 330 329 329 328 326 324 323
309 311 310 309 309 309 310 311 311 312 312 312 311 310 310 311 311 312 312 311 309 310 310 311 311 311 315 318 320 321 322 320 319 320 321 321 321 323 326 329 331 333 335 339 342 344 345 344 344 343 341 340 340 340 340 341 341 340 340 340 339 339 338 337 336 336 337 337 337 338 337 336 335 334 334 333 332 330 329 328 328 328 327 325 322 323
310 311 311 309 310 310 310 311 311 312 313 312 312 312 312 313 311 310 311 311 310 309 309 309 309 313 321 321 319 321 322 321 320 320 320 320 321 323 324 325 331 338 341 341 342 344 344 344 343 342 340 340 340 340 341 341 340 339 340 340 338 338 337 336 335 335 337 337 336 337 337 336 335 334 333 332 331 329 328 327 326 326 325 323 322 323
311 312 311 309 310 310 310 311 311 312 312 312 313 312 312 313 312 312 312 312 311 309 309 309 309 315 325 326 323 324 321 319 322 322 321 322 323 323 324 328 335 340 341 341 342 343 343 342 342 341 339 340 340 341 341 340 339 339 339 339 338 337 336 335 335 335 336 336 335 336 336 335 334 333 332 331 329 328 327 326 325 325 323 322 322 323
311 312 311 310 311 311 312 312 312 312 312 312 313 313 313 312 313 314 314 313 312 310 310 310 309 316 326 328 326 327 325 324 325 324 323 325 327 328 329 333 339 341 341 342 342 342 341 340 339 338 339 341 341 341 341 339 339 339 339 338 337 336 335 335 335 335 336 336 334 335 335 333 333 332 330 329 328 327 326 325 324 323 322 322 322 323
311 312 311 310 311 312 313 313 312 312 313 312 313 313 312 313 312 313 312 311 311 311 309 310 311 318 327 327 323 323 325 327 328 327 326 329 333 335 335 337 339 340 340 341 342 341 340 339 338 337 340 341 341 341 340 339 340 339 339 338 337 337 336 335 335 335 336 335 334 334 333 332 331 330 328 327 326 325 324 323 322 321 321 322 322 322
311 313 312 311 311 312 313 313 312 312 312 312 312 312 312 313 313 314 312 310 312 311 309 312 316 319 323 326 325 324 323 325 328 329 330 334 336 338 338 338 339 340 340 341 341 340 340 339 337 338 341 341 340 340 340 340 340 339 339 338 337 337 337 336 336 335 334 334 334 332 331 331 330 328 326 325 324 324 323 322 321 321 321 322 321 320
313 313 312 312 312 311 312 312 312 312 312 312 312 312 313 313 313 314 312 313 315 311 310 317 320 317 320 326 328 328 327 328 330 330 332 336 338 338 339 339 339 340 340 340 340 340 339 338 338 339 341 341 340 340 340 339 339 338 338 337 337 337 336 336 336 334 334 334 333 331 330 330 329 327 325 324 323 323 322 321 321 321 321 320 320 320
314 314 313 312 312 311 311 312 312 312 312 312 312 312 313 313 313 314 314 315 316 313 314 320 321 318 321 325 328 330 331 333 333 332 334 338 339 339 339 340 339 339 339 340 339 339 338 338 339 340 340 340 340 340 339 338 337 336 336 336 336 336 336 336 335 334 334 334 332 330 330 329 328 326 325 323 322 322 321 320 320 320 320 319 320 321
315 315 315 314 313 312 312 312 312 312 312 313 313 313 314 313 313 314 315 316 317 317 319 321 320 320 324 327 329 332 334 336 336 336 337 339 339 339 340 339 339 339 339 338 337 337 338 339 339 340 340 340 340 339 338 336 335 334 334 335 335 335 336 336 335 334 334 333 330 329 328 327 326 325 324 323 322 320 320 320 320 320 320 319 319 320
314 315 315 314 313 313 312 312 312 312 312 312 312 313 314 314 314 314 315 317 316 317 320 320 319 322 326 329 333 336 336 336 338 337 338 339 338 339 338 338 338 338 337 337 337 337 338 339 339 339 339 340 338 337 337 336 334 333 333 334 334 335 336 335 332 332 332 331 329 327 326 325 324 324 323 322 321 320 320 320 320 320 319 318 318 319
316 314 315 316 314 313 313 312 312 312 312 312 312 313 313 314 314 314 314 316 316 317 319 318 317 321 326 328 332 337 337 336 337 337 337 337 337 337 337 337 338 338 337 336 337 338 339 339 339 338 338 338 337 336 336 335 334 333 334 334 334 335 335 333 331 331 330 329 326 325 323 323 323 322 321 320 320 319 319 319 319 318 318 318 317 317
316 314 316 316 314 315 314 312 312 312 312 313 313 313 314 314 314 314 314 316 317 318 318 316 317 322 326 325 329 337 338 337 337 337 336 336 336 335 335 336 337 337 337 336 337 339 339 339 339 338 338 337 335 335 335 335 334 334 334 334 334 335 334 332 330 329 328 326 324 323 323 321 321 322 320 319 318 318 319 318 318 317 317 316 316 315
315 316 317 317 316 315 314 313 313 313 313 314 314 314 314 314 314 315 315 315 317 317 317 318 319 321 324 326 329 334 338 338 337 337 336 335 335 335 335 336 336 337 338 337 337 338 338 338 338 338 338 336 335 335 335 334 334 334 334 334 334 334 333 331 329 327 326 324 323 323 322 321 320 320 319 317 317 317 317 317 316 316 316 315 315 315
317 318 318 317 316 313 313 313 314 314 315 318 317 314 314 314 314 314 315 314 315 316 317 319 318 318 323 329 331 332 336 338 337 337 337 336 335 336 335 336 337 337 338 338 337 337 337 338 338 338 337 336 335 335 334 333 333 333 334 333 333 333 333 330 328 326 325 324 323 322 321 319 319 318 317 316 316 316 316 316 315 315 315 315 314 314
316 317 317 316 315 313 313 313 314 317 318 319 318 315 314 315 314 314 314 314 314 315 316 317 317 317 324 331 333 332 335 337 338 339 338 337 336 336 336 337 338 337 338 338 337 337 338 338 337 337 336 334 334 334 333 333 333 333 333 332 332 332 332 329 327 325 324 323 322 321 319 317 317 317 316 316 316 316 316 316 315 315 315 315 314 313
316 316 317 316 315 313 313 313 317 320 318 317 317 316 315 316 315 314 313 313 314 316 317 318 318 319 326 332 334 334 334 337 339 340 339 336 336 336 336 337 337 338 338 338 337 338 338 337 335 335 334 334 333 333 333 333 333 333 332 332 332 331 330 328 326 325 323 321 321 319 318 317 317 316 315 316 316 316 315 315 315 315 315 314 314 312
316 316 317 317 315 312 313 315 317 318 317 318 318 318 319 320 318 316 314 314 318 320 321 322 321 322 328 333 334 335 336 337 338 338 339 338 336 336 337 336 336 338 338 338 338 337 335 334 333 333 332 333 333 333 333 333 332 331 331 331 331 330 328 326 325 324 323 321 320 319 317 317 317 316 315 316 316 316 316 316 315 315 314 314 313 312
316 316 317 318 315 312 313 315 316 318 321 324 324 322 321 321 320 318 316 317 323 326 325 325 323 324 330 333 335 336 336 336 337 336 336 337 337 336 337 337 336 337 339 338 337 335 333 332 332 332 331 332 332 332 332 332 331 330 330 330 329 328 327 326 325 324 322 321 320 319 317 316 316 316 316 316 317 317 316 316 315 314 314 313 312 311
319 317 317 317 316 313 313 315 318 322 324 327 327 323 320 321 320 317 316 321 327 329 328 327 326 328 332 334 335 336 336 336 338 337 336 337 337 336 337 338 337 337 338 337 335 333 333 333 332 332 332 332 333 333 332 332 331 329 329 329 328 328 326 325 325 324 322 321 320 318 317 316 316 316 317 317 317 317 316 315 314 314 313 313 312 310
318 317 316 317 316 312 314 319 323 325 326 328 327 323 320 321 318 315 318 325 330 329 329 329 330 332 334 333 334 336 336 335 335 336 337 337 337 336 336 338 338 338 337 335 334 333 333 333 332 332 332 332 333 332 332 332 331 330 329 328 328 327 326 325 324 323 322 320 319 318 317 317 317 317 318 317 317 316 315 314 314 313 313 313 311 310
318 317 316 317 317 314 316 321 323 324 326 326 325 322 320 318 317 319 325 329 330 330 331 331 333 334 334 333 334 335 334 333 333 334 336 337 337 336 335 336 337 337 335 334 333 333 333 333 332 331 331 332 332 330 330 330 331 331 330 328 328 327 326 325 323 322 321 319 318 318 317 318 318 318 318 317 316 315 314 314 313 313 313 312 311 309
321 320 317 319 320 317 318 320 322 324 327 326 323 324 325 323 323 327 331 329 329 331 331 331 333 334 333 334 335 334 333 332 333 335 335 336 336 336 335 334 334 334 333 333 333 332 332 332 331 331 330 330 330 329 329 330 331 330 329 329 328 327 325 324 323 322 321 320 319 318 318 318 319 318 317 316 315 315 314 314 313 313 312 311 310 308
322 322 321 323 324 322 321 323 324 326 327 326 326 327 328 328 328 330 330 329 329 330 330 331 332 331 331 333 333 333 334 335 335 335 335 335 336 336 335 334 333 333 333 333 332 331 332 331 331 331 330 329 329 328 328 329 330 329 328 328 327 326 325 324 322 321 321 320 319 319 318 318 318 317 316 315 314 314 314 313 313 312 312 310 309 308
322 323 323 325 326 325 325 325 325 326 326 326 327 327 328 328 328 328 329 329 329 330 331 331 331 330 331 332 332 334 335 336 335 335 336 336 336 335 334 333 333 333 333 332 331 331 331 330 329 329 329 328 328 327 327 329 329 328 327 327 326 324 323 323 322 321 320 319 319 318 318 318 317 316 315 314 314 314 313 313 313 312 310 309 308 307
322 322 323 324 325 325 324 323 324 326 326 325 325 326 327 327 328 328 329 329 330 331 331 331 331 331 331 331 331 333 334 335 335 335 336 336 335 334 333 333 332 332 332 331 330 330 329 328 327 326 325 325 325 325 326 328 328 328 327 326 324 323 322 321 321 320 319 319 318 318 318 317 316 315 315 314 314 313 313 312 312 311 310 309 308 307
321 322 322 323 323 324 324 324 325 326 326 326 325 326 326 326 327 327 328 329 330 331 331 331 330 330 330 330 331 332 333 334 334 335 335 335 333 333 333 331 331 331 331 330 329 329 329 328 327 325 324 323 323 324 326 327 327 326 325 324 323 321 321 320 320 320 319 319 318 318 318 316 315 314 314 313 313 312 312 311 311 310 310 309 308 308
321 321 322 322 323 324 324 324 324 325 326 326 326 326 326 326 326 326 327 328 329 329 330 331 330 329 330 331 330 331 332 332 333 334 334 333 332 332 331 331 331 331 330 328 327 327 328 328 327 325 323 323 322 322 324 325 325 325 324 323 321 321 320 319 319 320 319 318 317 317 316 315 313 313 313 312 312 312 311 311 311 310 310 310 309 307
321 322 323 323 323 323 324 323 323 323 324 325 326 326 327 326 327 327 327 327 327 328 329 329 329 329 330 330 330 331 331 331 331 332 332 332 332 331 330 331 331 331 329 327 326 326 327 327 326 325 324 323 322 322 322 324 325 324 323 321 321 321 320 319 319 319 319 318 317 316 315 314 313 313 313 313 312 312 311 311 311 310 310 310 309 308
322 323 323 322 322 322 323 323 323 323 324 325 326 326 326 326 326 327 327 326 326 327 328 328 328 328 329 330 330 330 331 330 330 331 331 331 332 331 331 331 331 329 328 327 327 328 328 328 327 325 323 323 322 321 321 323 323 323 321 321 320 320 319 319 319 319 318 317 316 316 315 314 313 314 313 313 312 311 311 311 310 310 310 309 308 307
322 323 323 322 322 323 323 323 323 324 324 325 325 325 326 325 324 326 326 326 326 327 327 327 328 327 328 329 329 330 330 330 329 330 330 331 331 331 331 331 330 329 329 329 329 329 328 327 326 325 323 322 322 321 321 323 323 321 321 320 320 319 319 318 318 318 317 316 315 314 314 314 314 314 313 312 312 311 310 309 308 307 308 308 308 307
Wind_Speed
14 12 13 15 18 22 25 25 24 22 20 19 18 16 17 18 15 17 19 18 20 17 18 22 21 20 21 22 22 19 17 18 18 18 16 15 15 14 14 15 15 14 12 15 19 21 20 20 22 21 22 25 23 21 22 22 22 21 21 20 19 21 22 21 21 21 19 18 17 16 14 14 13 13 12 12 13 14 14 14 14 14 13 12 13 12
15 15 16 21 23 23 24 25 24 23 23 20 17 15 16 17 16 18 20 18 19 14 15 20 23 22 21 21 22 22 20 18 17 17 16 17 16 14 15 17 15 13 11 15 18 20 21 21 22 22 21 23 23 21 21 21 21 21 22 22 22 24 24 23 22 21 19 18 17 17 16 14 14 14 14 14 14 14 14 14 14 14 13 13 13 12
14 16 21 25 22 21 22 23 23 24 25 19 13 14 14 14 16 17 19 18 17 12 12 18 19 19 21 21 21 23 22 19 17 17 16 17 17 15 15 16 15 15 14 16 16 19 22 22 23 21 19 20 21 20 21 22 22 22 23 24 25 26 24 22 21 20 19 17 16 16 16 15 15 15 15 14 14 14 14 14 14 13 13 13 13 12
12 16 23 23 21 22 21 22 24 22 20 17 12 12 12 15 17 14 15 20 18 12 12 15 15 14 17 20 20 21 21 20 19 18 16 16 17 17 17 15 16 17 16 17 17 17 20 22 22 20 18 19 19 19 21 22 23 23 25 27 25 23 22 21 21 21 19 17 16 16 15 15 14 14 14 13 13 13 13 14 14 14 14 13 12 12
15 17 21 22 23 25 23 22 24 18 14 17 16 15 12 16 19 14 14 19 17 14 14 14 11 11 14 17 18 18 19 20 20 20 18 16 17 16 17 17 16 17 16 17 18 18 18 20 22 21 21 22 21 21 22 22 25 27 27 25 22 21 21 21 22 22 20 19 18 17 16 16 14 13 14 13 13 14 14 14 14 13 12 12 10 10
17 18 19 23 24 25 24 21 22 18 13 15 18 19 16 16 20 19 18 17 12 13 15 14 11 9 13 17 17 16 18 20 19 20 21 18 17 17 16 17 16 16 17 18 18 18 18 19 22 24 23 23 23 23 23 23 27 28 25 22 22 22 23 22 23 23 21 20 21 20 18 18 16 14 15 15 14 14 14 13 12 11 10 10 8 7
14 18 19 22 24 25 24 20 22 22 14 12 16 20 20 19 20 21 20 15 10 11 14 15 12 8 11 16 18 17 18 22 20 20 22 19 18 18 16 16 17 17 17 18 18 17 18 19 21 23 24 23 22 23 24 24 25 25 22 22 23 23 22 22 23 24 22 21 21 20 19 18 18 16 14 14 13 13 11 10 9 9 7 5 5 6
14 18 18 21 23 22 20 18 22 23 15 11 15 19 19 17 18 20 19 13 10 10 12 17 15 10 9 13 17 20 20 21 22 21 21 19 19 20 18 18 18 18 18 17 18 17 17 19 21 22 24 23 22 23 25 24 24 24 23 23 23 22 21 22 23 24 23 22 21 20 18 18 17 14 13 13 12 13 11 8 7 6 4 3 4 7
16 18 18 21 21 17 17 19 22 24 17 13 17 20 17 14 15 17 16 11 10 10 10 16 17 11 10 10 14 21 22 21 23 23 22 20 21 21 20 20 19 18 18 18 19 18 16 18 22 24 24 24 23 24 24 24 24 24 22 22 21 20 20 22 23 23 22 22 21 20 18 17 16 14 13 12 12 13 12 10 9 7 5 6 7 8
15 16 17 18 17 15 18 21 23 23 18 15 18 19 17 15 13 13 12 10 10 11 10 15 18 11 9 10 12 15 19 20 19 20 21 20 20 21 20 20 19 18 17 18 18 19 18 19 22 24 24 24 24 24 23 24 25 23 20 20 22 20 20 22 24 23 22 21 21 19 17 17 16 15 13 12 12 13 12 12 13 11 9 9 9 9
14 15 14 13 13 14 18 20 20 21 21 19 17 16 16 14 11 10 10 10 10 11 13 17 19 14 9 10 12 11 13 17 17 16 18 20 21 21 19 19 20 18 16 17 17 17 18 19 22 24 24 24 24 24 24 25 25 22 19 20 22 21 21 22 23 24 23 22 21 19 18 18 17 16 15 14 14 13 13 13 13 13 11 10 10 10
15 15 11 11 14 15 17 18 18 21 23 20 15 14 13 11 10 10 9 10 10 11 14 19 19 16 11 9 10 11 12 15 17 17 19 21 22 21 19 19 19 18 17 17 17 16 16 17 20 23 24 25 25 24 24 25 24 22 20 21 23 22 22 23 23 24 23 22 21 20 19 18 17 17 17 16 15 14 15 14 10 9 9 8 8 9
12 13 13 13 16 17 16 15 15 18 21 18 13 14 13 10 9 10 9 10 11 10 12 18 18 14 11 10 10 12 15 16 15 16 19 20 21 21 20 20 18 17 17 17 16 15 16 16 17 20 23 25 26 25 24 24 24 23 20 22 24 23 22 22 23 24 24 22 21 21 20 18 17 19 18 16 15 16 17 16 10 8 9 10 10 9
9 11 17 16 14 16 16 13 12 15 17 17 15 14 13 11 11 11 11 10 11 9 11 16 16 12 10 11 13 12 11 17 17 16 17 19 20 20 20 20 18 17 17 15 15 16 17 17 17 19 22 25 25 25 25 25 24 23 21 23 25 24 22 22 22 24 25 23 21 20 19 18 18 19 18 16 15 16 17 16 12 10 12 12 12 11
10 10 15 17 12 14 17 14 14 16 17 17 16 15 13 11 10 10 11 10 11 10 11 14 13 12 10 8 12 11 3 9 15 15 15 17 19 19 19 19 18 18 17 14 15 17 18 18 18 20 22 24 24 24 25 26 24 22 23 26 26 25 24 24 23 24 25 23 20 19 19 19 19 18 18 18 17 18 18 16 14 14 14 13 13 13
12 10 15 18 14 16 18 16 17 17 16 15 15 14 13 11 9 7 6 6 8 9 10 10 7 8 8 2 7 13 7 6 11 13 15 16 18 18 17 18 17 17 17 15 15 17 18 18 19 20 22 22 23 24 25 25 24 22 24 27 27 26 25 26 25 25 24 22 20 20 20 20 18 17 19 20 20 20 19 16 17 18 16 15 17 17
10 9 17 19 16 18 18 16 18 17 13 12 13 14 14 13 11 8 4 1 5 9 8 9 7 6 8 4 4 11 13 11 11 13 14 15 18 18 15 16 16 16 16 15 14 16 17 17 18 21 22 22 22 24 25 25 24 23 26 28 27 27 26 26 25 24 23 22 20 20 20 19 17 17 19 21 20 19 18 17 19 20 18 17 19 19
9 8 17 21 18 18 19 17 19 19 14 11 12 14 13 13 11 8 6 4 7 9 7 10 12 9 9 8 9 13 16 16 15 14 14 14 17 18 15 16 17 16 15 15 15 16 17 16 18 20 22 22 23 24 25 24 22 22 26 28 26 26 25 25 24 22 23 22 20 20 20 19 18 17 20 21 19 18 18 19 20 20 20 19 19 18
9 7 14 21 19 18 19 16 14 18 19 15 13 13 12 12 11 9 8 7 9 9 7 10 14 11 9 7 11 17 18 17 18 16 15 15 15 16 16 17 18 16 14 14 15 15 16 16 17 20 22 22 22 23 23 23 21 22 26 27 25 24 23 25 23 20 21 22 20 20 20 20 18 17 20 22 20 18 17 19 20 20 21 21 19 19
8 7 10 18 19 17 15 11 10 14 17 17 14 13 11 10 10 9 7 7 9 8 7 10 11 9 9 8 11 16 17 17 18 17 16 18 16 14 14 14 15 14 13 14 14 15 15 16 18 21 22 22 22 23 23 23 22 23 26 25 25 24 23 24 22 18 19 21 20 20 21 21 19 18 21 22 21 20 17 18 21 22 23 22 20 20
6 6 8 14 18 16 12 10 12 13 14 14 13 13 13 9 8 8 8 7 8 8 6 7 8 7 8 9 10 14 16 16 17 17 16 17 18 16 15 13 14 14 14 15 14 14 15 16 18 21 22 21 22 22 23 24 24 24 25 24 25 25 24 23 21 19 20 21 21 22 21 22 21 19 19 20 21 21 18 18 23 24 24 23 22 21
6 5 8 12 13 13 14 15 16 16 16 13 12 14 13 11 9 10 10 9 8 8 7 6 6 5 6 9 10 11 13 14 17 18 16 17 19 18 15 14 14 14 14 15 13 14 14 15 17 20 21 21 22 22 23 23 24 24 23 25 26 26 26 27 27 26 23 22 24 24 22 23 21 19 19 18 18 17 16 19 24 25 24 23 23 20
3 3 8 12 12 13 17 19 17 18 18 14 12 14 13 11 11 9 9 9 7 8 9 8 7 2 4 5 8 9 11 14 16 17 15 15 17 17 16 16 15 14 14 14 13 14 14 14 17 19 21 22 22 23 24 24 25 24 24 26 26 26 30 32 31 27 23 24 26 23 21 22 21 20 20 18 16 14 15 21 25 24 24 24 21 17
3 3 8 10 11 12 16 18 16 17 17 14 12 13 12 13 13 10 8 8 6 7 8 8 8 5 4 1 3 4 8 11 13 15 16 14 13 15 17 16 15 14 14 14 14 14 13 14 16 17 18 20 22 23 24 24 25 25 25 27 27 28 32 31 25 22 22 24 25 20 19 21 21 21 20 19 19 19 20 25 26 24 24 23 19 17
4 5 8 9 10 11 12 13 14 15 14 11 10 14 15 16 16 12 8 8 7 8 9 7 6 6 5 4 4 5 7 6 8 11 14 13 11 11 13 13 14 14 14 15 15 15 15 16 15 15 16 19 22 23 24 24 24 26 27 28 28 29 29 24 20 22 23 23 22 19 19 21 21 22 22 21 22 23 25 28 28 26 24 22 19 18
4 5 7 8 10 11 11 12 12 13 12 11 14 17 18 19 19 13 8 7 7 9 10 6 3 6 7 7 8 9 9 8 8 8 9 11 11 10 11 12 13 13 14 16 16 16 16 15 14 15 17 20 22 23 24 24 25 27 29 29 28 28 26 22 22 25 25 23 20 17 19 22 23 24 23 21 24 27 29 29 30 28 24 20 19 19
3 5 7 10 10 11 12 14 16 16 15 15 18 20 18 19 20 14 8 7 8 9 9 4 6 8 9 8 8 7 9 11 10 9 10 11 11 11 12 12 13 13 14 15 16 15 15 15 15 16 18 21 22 22 23 23 25 28 29 29 29 28 27 25 24 25 26 24 20 18 18 21 22 23 21 21 25 28 28 28 30 28 24 21 20 18
3 5 9 12 12 11 14 17 19 19 18 18 20 21 19 18 19 16 11 9 8 9 7 7 7 7 9 8 7 4 4 8 10 10 10 11 11 11 12 13 14 14 15 15 16 16 16 16 17 18 19 20 21 20 21 23 26 28 29 30 29 27 27 26 24 24 25 25 23 21 20 21 22 21 20 20 23 24 26 27 27 25 23 21 19 17
2 4 10 12 12 11 14 18 20 20 18 17 19 20 19 19 19 17 14 13 11 8 6 8 5 4 7 8 7 4 1 6 8 9 9 10 11 12 13 15 15 15 16 17 16 17 17 16 17 17 18 20 21 21 22 23 26 28 28 29 28 27 26 25 24 24 25 26 24 22 24 26 23 19 20 23 24 23 25 26 24 22 22 20 17 16
2 4 9 11 11 12 14 17 21 21 18 17 18 19 19 19 19 18 16 15 11 6 7 5 3 3 6 7 6 4 0 4 6 7 9 11 12 13 14 15 15 16 17 17 16 17 17 17 18 17 17 19 22 24 24 24 25 27 28 27 26 26 24 23 24 24 25 26 24 22 25 25 21 21 24 26 26 25 25 25 23 22 21 18 16 16
1 4 7 8 8 8 10 14 18 20 19 18 18 19 20 19 18 18 16 14 9 2 2 3 2 3 6 6 5 3 1 4 7 8 10 11 11 13 14 15 16 16 16 17 17 17 18 18 19 18 17 19 23 26 26 24 24 25 26 26 25 24 22 22 23 23 23 26 25 23 24 23 22 24 26 26 25 25 26 26 24 22 20 18 16 16
4 3 3 6 6 6 10 13 16 17 17 17 18 19 20 19 17 16 15 12 10 6 4 4 2 3 4 4 5 4 2 4 7 9 10 10 11 13 14 14 15 16 16 17 18 18 18 19 19 19 19 22 26 27 26 25 24 24 24 24 23 22 21 22 22 21 23 26 25 23 23 23 23 25 25 25 25 25 25 25 23 22 20 19 18 18
6 4 2 5 5 7 12 14 16 16 14 13 15 17 18 17 16 14 14 15 13 9 5 4 2 4 3 4 5 4 2 4 6 8 9 10 12 13 14 14 14 15 16 16 17 18 17 17 17 19 21 23 25 26 26 26 25 24 24 25 23 21 21 22 21 21 24 25 23 23 23 23 25 25 24 25 25 24 24 24 23 22 20 18 19 19
6 7 5 4 3 7 13 14 14 14 11 8 11 16 17 17 17 15 14 15 15 10 5 4 1 2 3 4 5 4 2 3 5 6 7 9 11 12 14 14 14 14 15 15 16 16 16 15 16 20 22 23 24 25 25 25 24 24 25 25 23 21 21 23 21 21 23 23 23 23 23 23 24 23 23 25 26 26 24 23 22 21 19 19 19 19
6 7 5 3 3 8 11 11 11 11 7 4 8 15 16 15 16 15 14 15 15 11 8 7 6 3 4 5 4 3 2 2 5 6 7 8 10 11 13 14 14 15 15 16 17 16 15 16 18 19 21 23 25 25 24 24 25 25 25 24 22 21 21 22 21 21 21 22 22 23 23 24 25 24 24 26 26 25 22 21 22 21 19 20 19 19
6 6 4 4 3 7 10 9 8 7 6 4 7 12 13 13 14 13 12 14 14 11 9 9 8 4 3 4 4 2 1 3 5 5 7 8 8 10 11 12 13 14 14 14 16 16 17 19 21 21 21 24 26 25 23 24 25 25 24 24 23 21 21 22 21 21 21 22 22 22 23 26 29 27 26 25 24 23 22 22 22 21 20 20 19 19
8 5 4 4 5 8 9 9 7 7 8 7 6 8 8 8 11 10 8 10 11 8 5 5 5 3 2 2 4 3 2 4 4 4 7 9 9 10 11 12 13 14 14 15 17 19 20 21 22 23 23 25 26 24 23 24 24 23 23 23 22 21 21 21 20 21 22 22 23 23 23 28 32 29 26 25 23 22 22 20 20 20 21 20 20 20
9 6 4 4 5 8 8 7 7 7 7 6 6 7 3 1 5 7 6 6 6 3 2 4 6 4 1 2 3 3 3 5 4 2 3 7 10 11 12 13 15 15 16 17 20 22 24 23 23 24 25 24 24 23 23 24 24 24 23 23 22 22 21 20 20 21 22 22 23 23 24 29 33 29 26 24 23 22 21 21 21 21 21 21 21 20
10 7 5 5 6 8 8 7 7 6 2 1 4 7 4 2 5 6 6 6 4 3 0 4 6 4 0 2 3 3 3 4 5 2 4 5 9 12 12 13 15 16 18 20 22 23 25 24 24 24 25 24 22 22 23 24 24 24 23 23 23 22 21 20 20 21 21 21 23 23 24 28 29 27 25 24 22 22 22 22 22 22 21 21 20 19
7 6 6 6 7 7 7 6 5 4 2 2 1 6 6 6 7 7 7 5 3 3 2 1 3 1 3 4 4 2 1 3 5 6 6 6 9 12 12 13 14 15 18 21 22 23 23 23 23 23 23 23 22 22 23 24 23 22 22 23 23 22 21 21 22 21 21 22 23 24 25 27 27 26 25 24 22 22 22 22 22 22 21 21 20 19
5 6 7 6 6 8 7 5 4 5 3 3 2 4 7 8 8 7 5 3 2 2 2 1 1 3 6 5 3 1 2 4 5 7 8 8 10 12 12 13 16 18 20 21 22 22 22 22 22 21 21 22 21 20 21 21 21 21 21 22 22 21 20 21 22 22 22 24 25 25 26 28 28 26 25 23 23 23 22 22 21 22 22 21 20 19
3 4 5 4 4 6 7 5 5 5 2 4 1 4 6 7 6 3 3 3 1 1 3 2 2 5 7 5 3 3 4 5 6 9 11 10 11 13 12 13 16 18 20 20 20 21 22 21 20 20 20 21 20 19 18 19 19 19 19 20 20 19 20 20 21 22 23 24 26 25 25 27 27 26 24 23 23 23 22 21 22 23 22 21 20 20
3 1 3 1 2 3 7 5 6 6 3 4 1 4 2 1 2 2 3 3 3 4 4 4 3 5 6 6 5 5 5 7 10 11 12 12 12 13 14 15 16 17 19 19 19 19 20 20 19 19 19 19 19 17 16 18 18 17 17 19 20 20 21 22 22 22 23 24 24 24 23 25 25 24 23 23 24 24 23 23 23 23 22 21 21 21
5 3 1 2 4 1 5 4 3 4 5 4 2 5 5 4 3 3 3 4 5 5 4 4 6 7 6 6 7 7 6 9 12 12 11 12 13 14 15 15 15 16 17 18 19 19 19 19 18 18 18 18 17 16 16 18 19 16 16 18 19 20 23 23 22 23 23 23 24 24 23 24 23 22 23 24 25 24 23 24 24 22 20 21 21 21
7 5 2 4 5 4 5 5 1 2 6 8 7 7 7 6 5 4 5 5 5 5 5 4 6 9 9 7 8 9 7 7 10 11 11 12 13 14 14 14 15 16 16 17 18 19 19 19 18 18 18 17 16 16 16 18 18 17 17 17 18 20 23 23 22 22 22 23 24 25 24 24 22 22 23 24 25 25 23 23 22 20 19 21 21 19
5 4 2 4 4 5 7 4 1 1 6 8 8 8 7 6 5 5 6 6 6 7 6 5 5 8 10 9 8 9 8 8 8 9 11 12 13 13 13 14 14 15 15 16 17 18 19 19 18 18 17 16 16 16 17 17 17 16 17 19 20 21 22 22 21 21 21 22 23 24 24 23 22 22 23 24 24 24 23 22 22 20 20 21 21 19
4 4 3 3 1 1 4 2 1 5 9 8 8 9 8 8 7 5 6 7 7 8 7 7 5 6 9 10 9 9 10 10 8 8 10 12 13 12 13 13 13 14 15 16 16 17 18 18 18 17 17 17 17 16 16 16 15 16 19 21 21 21 21 21 21 21 21 22 22 23 22 23 23 23 23 23 23 23 22 22 22 21 21 21 20 19
5 7 3 5 3 3 6 2 2 6 10 9 7 7 7 7 8 7 7 7 8 8 8 8 6 5 8 10 9 9 10 10 9 9 9 10 11 10 11 12 13 14 16 16 16 16 16 16 16 17 17 17 16 15 15 15 15 18 20 22 21 21 21 21 21 22 22 21 21 22 22 23 23 22 22 21 21 21 21 21 21 20 20 21 20 19
4 6 3 6 6 5 5 2 3 3 8 10 9 8 7 7 8 8 8 8 9 10 10 10 9 8 10 9 8 8 9 9 9 10 9 9 10 10 10 11 12 14 16 16 16 16 15 14 16 16 16 16 15 15 15 15 16 19 21 20 21 22 22 22 21 21 21 20 21 22 22 21 22 21 21 21 21 19 18 19 19 19 19 20 20 18
3 5 4 3 5 5 4 2 3 1 5 7 8 9 9 8 8 9 9 9 10 10 10 10 10 10 10 9 7 7 8 8 8 9 9 8 9 10 11 12 12 14 15 15 15 15 14 14 15 15 15 15 16 16 15 15 17 19 20 20 20 21 22 22 21 21 20 20 20 21 21 22 22 21 21 22 20 17 16 16 16 17 19 20 20 18
4 4 4 2 3 4 4 3 3 3 5 6 7 8 8 8 9 10 10 10 10 10 9 9 10 10 10 10 8 7 7 7 7 8 9 8 8 10 12 14 13 13 14 15 15 15 14 14 15 16 16 16 16 17 16 17 18 19 19 19 20 20 21 22 21 21 21 20 20 22 22 22 23 22 21 21 20 18 17 16 12 11 16 20 20 19
Wind_Direction
206 211 207 210 209 206 209 213 218 223 223 216 211 214 213 218 218 207 216 203 183 201 215 216 225 220 218 223 226 231 221 215 218 218 222 219 217 212 203 210 208 204 194 165 165 174 176 179 181 181 179 185 188 178 175 170 164 170 166 163 164 164 169 174 177 180 182 186 184 184 186 184 189 190 188 191 192 193 192 189 185 185 187 188 193 193
206 218 213 212 212 208 210 213 217 222 228 225 216 215 211 215 219 205 210 205 181 197 218 212 223 226 220 222 222 227 227 218 214 216 221 218 214 211 204 206 204 203 188 160 163 173 177 179 180 181 178 183 185 175 173 171 167 168 162 164 171 171 177 180 179 179 182 187 186 186 187 183 186 189 189 192 192 193 192 190 188 188 190 192 196 195
206 220 218 213 210 210 210 210 214 218 223 229 223 219 213 207 217 209 203 202 186 195 221 210 219 228 223 224 224 222 225 222 213 212 220 220 212 206 205 204 202 202 183 164 169 173 176 177 177 180 177 180 180 170 173 176 167 162 164 174 180 178 180 179 178 179 181 184 185 188 187 184 188 189 192 194 192 193 191 190 192 192 194 195 196 196
207 217 219 213 206 209 209 205 209 215 220 224 219 219 214 201 209 207 194 201 198 196 218 218 220 229 223 223 226 223 224 224 217 210 212 219 214 204 203 204 202 203 184 167 174 173 172 175 174 176 174 176 176 172 180 178 161 164 177 182 181 178 177 176 177 179 179 179 180 186 187 187 190 188 190 192 192 194 193 194 196 196 198 196 195 196
221 216 215 214 209 206 207 204 205 209 216 217 216 220 216 204 205 203 192 196 202 203 211 223 227 227 222 220 222 222 221 223 220 211 205 210 214 208 205 205 204 203 188 173 176 173 170 173 173 174 173 175 177 179 183 174 166 178 185 180 174 174 177 178 178 176 175 175 178 183 185 187 189 184 186 190 194 197 197 198 198 197 197 192 190 191
228 217 208 211 211 207 207 206 201 203 212 210 215 221 218 207 201 203 197 185 196 212 202 211 229 224 219 221 220 215 215 218 219 213 206 202 205 208 208 207 203 203 193 180 178 174 169 170 172 173 172 174 177 179 179 174 179 186 183 176 173 175 179 178 175 175 174 173 178 182 183 186 187 185 188 190 192 195 199 201 196 194 198 192 185 181
228 219 209 208 208 206 207 208 200 201 211 207 207 214 214 212 205 203 200 185 197 216 193 199 226 231 216 220 218 213 213 212 212 215 209 201 201 203 208 207 201 200 196 184 181 178 171 168 171 174 173 175 176 176 175 177 183 185 180 180 178 175 177 175 173 174 173 174 179 183 185 188 189 189 191 187 185 188 195 202 197 194 202 200 173 161
221 220 210 204 205 203 204 208 198 198 212 205 194 205 213 215 208 202 203 197 201 213 196 197 215 238 231 218 210 208 215 212 206 211 210 203 204 201 203 206 200 199 197 187 182 182 178 170 170 172 172 175 176 173 174 175 180 184 183 183 179 176 176 174 173 173 174 177 180 183 187 189 191 192 186 177 175 183 186 179 178 183 191 194 158 146
210 221 211 201 204 202 201 206 198 197 211 205 191 201 212 217 212 205 206 204 201 210 209 197 201 227 238 226 210 201 209 214 205 205 207 203 203 201 200 204 201 199 198 193 185 181 182 176 171 171 170 172 173 172 173 173 179 185 184 179 177 179 179 176 174 174 176 178 178 183 187 187 189 187 178 169 166 178 177 153 147 158 175 190 176 150
202 217 217 204 203 200 198 204 201 196 203 207 196 192 202 217 219 209 207 206 207 218 222 201 194 213 233 225 221 203 202 211 204 200 203 201 202 201 198 201 202 199 197 196 187 177 181 181 172 169 167 167 170 171 172 174 180 186 183 176 174 177 178 175 174 175 175 175 175 180 185 184 184 177 170 164 158 165 166 152 152 159 167 176 170 153
205 201 212 210 206 204 197 200 205 198 199 209 200 185 193 207 206 205 209 213 216 221 225 212 198 205 229 220 218 212 199 204 202 196 198 198 202 202 197 199 201 199 195 194 188 175 175 178 173 168 165 165 167 167 171 175 180 185 180 173 171 172 173 172 175 178 174 173 173 178 185 184 178 172 167 160 156 160 157 154 161 163 165 169 163 149
216 190 191 211 209 203 196 198 206 198 199 210 199 182 187 189 191 200 204 213 225 221 216 218 207 203 220 224 213 207 199 202 201 196 194 195 200 200 197 199 199 197 194 192 189 174 168 175 175 170 164 163 165 165 170 173 178 183 175 168 171 171 170 172 178 178 174 174 177 182 187 184 177 177 175 163 158 162 156 156 164 158 152 159 156 144
219 184 175 203 208 205 200 198 200 190 195 206 192 182 187 180 187 196 194 204 222 223 208 211 212 209 218 228 226 212 195 196 204 200 192 191 197 197 195 198 196 194 193 190 188 173 165 175 177 170 162 161 165 167 168 170 178 182 170 166 172 172 174 177 179 178 175 176 182 184 184 181 175 177 178 170 161 162 161 161 162 152 153 159 154 147
207 186 179 193 203 210 212 199 189 182 191 201 189 184 189 181 180 188 196 204 211 218 212 204 205 218 227 217 226 233 193 186 201 206 192 187 195 196 193 195 193 193 192 188 187 172 165 174 174 165 160 161 167 168 169 172 180 181 168 165 170 171 178 182 180 181 179 177 181 180 178 176 172 168 174 176 167 167 169 164 159 158 161 157 150 152
190 189 185 192 190 199 211 207 190 183 191 198 190 192 198 188 183 187 194 203 200 200 206 203 200 214 220 192 204 224 202 179 194 199 191 185 192 194 192 193 192 193 191 186 185 173 166 172 169 162 160 163 167 169 172 174 179 182 168 164 169 171 179 184 183 185 183 178 177 174 174 177 174 168 170 173 169 168 167 161 158 161 160 153 149 155
194 188 183 193 188 187 202 206 194 189 191 190 190 201 204 191 184 188 196 207 203 196 199 204 204 209 210 177 193 196 182 183 189 189 191 185 187 191 192 193 192 194 190 184 183 174 167 168 165 161 161 163 165 168 172 174 181 182 165 162 170 173 179 184 184 184 181 175 173 172 175 178 177 175 174 173 169 167 164 158 158 160 161 160 159 161
199 184 175 186 190 190 197 198 194 198 194 181 192 206 205 200 191 183 190 180 200 204 192 189 199 206 199 194 199 187 179 183 188 191 192 185 184 187 190 191 191 194 188 180 180 173 166 166 163 161 161 162 164 166 170 175 183 181 164 162 170 173 178 181 181 182 178 173 173 173 174 176 177 177 177 174 169 169 167 161 161 164 166 165 164 167
204 177 170 182 187 188 197 200 199 206 200 182 196 203 202 211 206 191 190 170 191 205 183 179 195 204 198 183 179 190 190 186 191 196 191 185 186 184 186 191 192 192 184 177 176 170 168 168 161 159 161 162 164 167 171 176 182 180 168 165 170 174 177 176 177 179 172 171 175 175 175 179 181 177 173 171 168 172 171 165 166 170 172 171 170 168
216 182 169 183 184 181 195 203 200 205 208 204 201 197 199 208 200 193 197 184 191 201 185 185 195 204 215 190 169 186 195 191 192 194 187 186 189 184 185 189 187 183 178 178 177 170 168 165 156 156 160 160 162 166 170 174 178 174 166 165 170 174 171 169 172 169 164 170 177 176 178 180 180 175 171 169 170 174 171 168 169 168 170 174 173 163
217 186 171 182 181 178 188 204 199 195 206 211 202 196 206 210 196 194 203 197 194 197 191 188 190 202 214 195 169 178 191 195 191 189 187 188 189 187 184 183 179 175 175 181 182 169 162 158 153 155 158 158 162 165 168 172 173 166 159 162 169 169 162 163 166 163 164 173 176 174 176 175 174 172 169 170 172 172 170 169 168 165 167 171 167 157
220 189 176 177 179 181 183 196 200 190 195 202 195 194 199 198 198 200 205 209 199 193 195 190 190 198 197 191 181 174 182 193 191 187 188 189 189 188 185 182 179 177 178 181 178 164 156 154 152 153 155 156 159 163 169 172 168 160 156 161 167 162 154 157 166 170 170 170 170 173 175 173 172 168 165 168 169 168 169 171 173 171 169 168 162 154
226 203 190 174 174 187 184 185 196 196 194 196 192 195 192 184 192 197 197 209 207 195 194 199 206 194 166 182 190 172 171 185 190 191 191 190 190 187 185 183 177 172 174 174 166 155 152 150 150 152 155 155 158 163 168 166 161 157 157 161 163 155 151 163 175 174 168 166 171 175 173 170 170 166 161 162 162 161 162 168 174 174 170 165 159 153
222 228 204 180 173 185 178 178 197 202 198 201 203 201 193 185 197 201 190 197 209 200 189 194 203 156 100 165 186 172 174 180 184 191 193 189 188 185 183 180 172 168 168 164 155 149 147 148 150 152 155 156 159 163 161 156 155 156 156 158 157 151 158 175 180 168 161 172 178 174 166 165 166 162 156 155 157 154 157 168 173 173 169 162 155 154
175 214 207 184 172 178 172 176 197 203 200 203 205 205 200 192 201 215 199 186 207 210 187 181 186 152 91 125 180 184 201 188 174 182 190 188 186 183 179 172 166 168 165 156 149 145 145 148 150 152 155 157 158 158 155 152 153 157 156 156 154 155 166 179 178 162 162 176 180 170 160 161 160 155 153 158 166 166 166 170 171 168 163 155 151 159
182 213 205 181 166 169 170 176 191 199 200 198 198 206 206 196 202 219 206 178 195 208 194 186 177 149 129 157 177 191 203 173 148 171 180 175 169 168 168 164 164 169 164 153 149 146 147 150 151 154 155 156 155 154 153 153 155 158 157 155 155 158 167 175 170 162 163 169 171 165 160 159 155 153 155 161 170 172 166 164 164 160 155 150 154 162
208 234 207 181 167 165 171 177 182 188 192 195 198 203 204 197 197 208 205 180 184 202 207 205 138 127 133 150 168 186 191 168 154 171 166 154 155 159 162 166 169 171 164 156 151 150 151 152 153 154 152 153 154 153 154 157 158 159 157 155 156 159 163 165 163 163 163 163 162 159 157 157 154 154 156 159 167 170 164 161 160 155 151 154 160 162
228 248 221 200 183 169 172 177 180 184 189 194 195 196 201 199 194 198 211 197 178 188 197 158 111 140 144 135 139 164 186 176 165 170 163 153 158 162 165 169 169 168 164 156 152 150 151 151 151 151 150 152 155 154 156 157 155 153 152 152 156 158 159 160 160 162 166 165 161 156 157 158 155 153 155 158 162 163 161 160 158 154 154 160 162 160
236 231 223 226 216 186 175 177 181 187 192 193 191 193 198 198 193 196 208 199 179 184 174 108 102 140 129 106 99 105 174 178 167 170 165 154 158 161 164 167 164 163 160 154 152 151 150 152 152 151 150 150 152 151 148 147 145 144 146 150 154 157 158 159 158 159 166 165 160 157 158 158 156 154 153 153 155 157 157 157 154 153 157 162 162 161
285 227 207 226 234 211 190 181 181 188 193 192 191 193 194 196 194 194 200 196 181 165 124 92 87 112 95 82 72 58 174 184 171 168 155 149 159 161 162 164 162 161 158 153 153 152 151 153 153 151 149 148 149 144 140 139 139 139 142 148 152 155 158 160 158 159 162 159 155 154 156 157 155 154 153 151 151 154 156 154 153 155 158 161 164 162
355 248 202 211 228 223 204 182 176 185 192 192 193 192 192 195 194 191 200 206 192 136 90 79 65 72 68 56 54 47 209 166 154 158 153 156 163 160 161 165 162 159 157 153 154 156 154 153 151 150 148 147 146 142 138 139 139 140 145 149 152 157 160 157 155 158 157 154 152 151 153 155 154 155 156 153 151 151 152 154 155 155 156 159 162 159
208 228 198 206 212 210 202 179 174 183 189 190 193 193 191 193 194 193 201 215 222 213 30 319 304 96 83 56 57 71 135 144 150 165 163 162 164 161 162 166 161 157 156 154 155 157 156 152 149 148 147 143 143 142 142 142 143 145 150 152 156 162 159 149 149 156 155 153 152 149 149 151 151 153 155 153 151 152 152 154 154 153 155 158 157 154
257 238 197 215 200 194 205 187 175 182 187 190 194 193 189 192 196 197 200 213 226 227 230 254 256 106 89 58 68 92 123 145 158 171 168 164 165 163 162 163 160 157 156 156 156 155 155 152 148 147 145 142 144 146 146 145 146 149 152 155 161 165 154 142 147 157 155 152 150 147 148 150 151 154 154 151 150 150 149 149 149 151 155 156 152 150
266 272 242 227 200 202 211 188 168 175 186 192 195 191 189 191 194 195 201 213 220 220 229 236 146 88 55 28 40 58 105 143 160 171 169 165 165 164 162 162 161 157 154 157 157 153 151 150 147 145 144 143 146 148 147 146 148 152 155 157 161 162 151 142 148 154 152 150 150 149 150 152 153 154 151 146 143 143 145 147 149 150 150 148 150 151
278 278 263 244 207 200 199 178 164 175 187 188 186 186 189 190 189 192 202 214 216 215 240 271 303 54 17 18 28 27 51 125 151 164 166 165 164 163 162 161 160 157 152 152 156 153 148 148 146 143 145 146 146 146 147 147 147 151 157 158 158 158 150 144 148 152 151 153 154 152 153 153 151 147 145 144 143 142 142 143 144 145 144 146 153 155
281 275 275 282 215 181 175 171 173 178 179 178 179 181 186 189 189 194 205 214 214 210 223 255 269 303 354 18 34 26 14 78 120 145 155 161 164 164 164 161 156 155 151 150 154 153 148 147 145 142 144 145 143 143 144 147 150 154 156 156 157 158 153 146 147 151 152 154 155 154 153 152 146 140 140 145 146 143 139 139 140 143 147 154 158 157
273 277 300 301 230 172 166 176 174 151 133 137 169 174 177 185 189 195 205 210 210 207 212 234 251 275 338 11 39 53 91 98 104 128 143 153 166 166 162 159 152 149 151 152 152 151 146 145 144 143 142 141 142 145 147 151 155 156 155 157 159 159 153 146 147 151 152 153 155 155 152 150 147 143 141 142 141 140 139 141 145 149 155 161 161 158
273 283 309 287 223 177 169 167 146 131 139 147 167 174 174 184 190 192 203 205 201 202 219 247 258 271 324 33 60 71 127 131 124 135 144 154 168 164 155 154 149 146 149 149 146 144 142 139 138 140 140 141 146 150 152 154 155 153 154 157 157 154 150 147 150 153 151 151 154 155 152 153 152 147 143 142 140 141 144 148 153 158 162 163 161 160
265 269 301 290 214 179 173 161 145 148 154 144 146 157 162 187 178 182 198 193 170 160 251 273 269 258 274 57 80 109 153 145 130 142 166 161 161 157 151 150 149 146 145 146 143 139 137 136 136 139 142 145 149 153 153 152 151 151 153 155 153 151 151 151 153 155 153 152 154 153 152 154 155 149 144 145 145 147 153 159 162 163 164 163 162 161
249 246 257 261 221 187 173 166 157 152 157 120 130 140 159 170 151 171 194 172 130 89 334 266 263 254 157 92 107 140 172 146 128 170 227 186 153 146 143 144 146 144 140 140 139 135 135 139 141 144 148 151 152 154 154 152 151 152 153 154 154 154 154 155 156 157 155 154 155 153 150 151 152 150 148 151 154 157 161 163 164 163 163 163 162 161
242 232 223 224 223 205 181 162 141 116 66 333 101 133 157 163 163 188 190 143 89 37 35 269 250 212 97 109 123 140 169 124 128 155 183 164 136 134 135 135 140 139 132 131 133 135 139 144 146 149 154 156 156 157 156 154 152 152 153 155 156 156 156 157 158 157 155 154 155 154 151 149 150 151 153 157 160 161 162 163 163 163 164 163 162 161
209 208 207 210 212 197 171 129 97 97 78 334 2 114 148 160 173 195 176 106 21 343 43 14 206 110 100 118 138 109 70 87 115 140 147 136 123 126 130 131 133 134 130 131 138 143 146 149 153 156 158 158 157 155 155 157 157 153 152 155 157 156 155 155 156 156 155 155 156 154 151 150 152 155 157 160 161 162 163 164 164 165 164 163 163 162
201 202 194 227 234 181 145 115 112 111 54 319 350 113 142 170 175 166 114 94 324 356 78 102 134 111 115 132 130 94 88 109 141 151 145 134 124 123 125 123 121 124 127 133 144 148 147 149 153 154 155 156 156 153 154 160 159 151 149 155 157 155 153 152 153 153 153 154 155 152 149 153 157 158 158 160 162 163 164 165 165 165 165 164 164 162
7 336 165 247 296 142 130 128 133 115 41 326 186 117 76 148 135 84 79 94 43 38 85 114 98 97 114 121 106 89 100 129 147 150 142 135 128 123 121 117 115 120 128 137 144 146 145 148 151 149 151 156 158 156 156 158 155 149 149 155 156 155 155 153 151 151 152 152 153 150 149 155 159 156 155 160 164 165 165 164 165 167 167 166 165 161
19 0 148 31 353 52 121 112 110 91 50 26 79 96 65 56 72 44 38 74 61 41 63 95 96 105 120 117 104 97 102 122 134 138 136 133 130 126 124 122 123 129 136 139 141 144 144 145 147 149 152 158 161 158 157 159 156 152 153 155 153 151 153 153 151 152 153 153 155 155 155 157 158 156 158 162 164 166 166 165 166 166 161 160 162 160
20 6 44 52 28 38 77 77 11 20 58 58 64 75 75 70 63 37 34 52 50 37 43 67 103 122 133 126 106 102 103 109 120 130 133 127 123 127 130 129 131 136 138 138 140 144 144 143 145 148 152 159 163 159 160 164 161 156 156 155 149 147 150 150 150 152 153 154 157 159 158 159 160 160 162 164 165 167 166 165 165 161 153 156 165 164
8 353 34 66 61 64 66 63 265 91 79 77 73 71 70 66 55 38 38 41 34 35 46 58 81 114 133 134 116 108 113 112 112 123 127 120 119 127 133 131 132 136 138 139 141 145 146 145 147 149 152 159 162 161 165 167 163 159 157 152 148 148 151 151 152 153 154 154 157 159 159 160 162 162 162 163 165 166 164 163 166 164 161 166 172 170
7 10 68 89 82 90 84 66 348 68 72 74 79 78 71 68 64 48 42 44 36 36 50 65 77 105 121 122 115 111 116 124 125 120 118 117 121 128 133 133 135 137 140 143 145 146 148 151 153 156 157 158 161 164 166 163 160 156 152 149 151 153 153 154 156 157 156 157 158 161 163 162 161 161 160 160 163 164 165 167 170 170 170 173 174 172
354 347 45 97 76 66 93 95 354 54 63 58 64 70 65 67 71 64 56 55 51 49 54 62 74 87 91 98 109 110 111 123 132 127 122 122 123 127 132 135 137 139 141 143 145 148 152 155 158 160 159 158 161 162 157 154 156 156 152 153 157 157 155 156 159 159 160 160 161 164 166 161 158 158 158 160 164 167 170 174 176 176 179 182 180 177
343 340 20 106 100 74 75 41 314 43 66 55 52 58 56 55 63 66 63 63 62 61 58 56 59 68 78 90 108 113 109 118 128 130 132 131 128 129 134 134 135 137 139 143 149 154 157 158 160 160 158 157 157 153 148 150 155 156 156 158 160 159 157 159 162 163 162 161 163 165 163 159 159 161 163 167 169 169 172 178 181 183 186 186 184 183
10 14 9 81 105 87 61 3 319 26 71 54 45 51 53 52 58 61 58 58 60 62 65 67 68 73 82 90 99 106 106 107 113 120 127 128 130 134 136 134 134 136 142 150 156 159 158 158 158 157 153 153 155 155 157 160 157 156 159 162 162 162 162 161 163 165 163 163 166 167 163 163 166 166 168 172 171 164 166 176 182 186 187 185 184 185
35 42 23 37 87 72 43 16 358 31 62 55 45 46 47 47 54 56 51 52 57 57 60 67 72 75 79 81 81 87 93 96 104 115 119 122 128 133 136 140 141 143 150 157 158 156 155 154 155 155 154 154 156 159 165 167 162 160 164 166 166 167 166 164 165 166 165 165 167 165 164 169 172 168 169 175 175 169 170 174 173 172 177 179 182 185